• In Spain
  • List of Countries
  • For 7 days
  • Water Temperature
  • Satellite Maps
  • Weather Map
  • Weather Widgets
  • user-avatar
    Login

    Hourly Weather Malanje

    Today, 24 September, Sunday

    Time Temperature Precipitation Wind Pressure Humidity
    00:00 +24°C° 0 mm 2 mps 666 mmHg 63%
    01:00 +23°C° 0 mm 2 mps 666 mmHg 70%
    02:00 +21°C° 0 mm 2 mps 666 mmHg 73%
    03:00 +21°C° 0 mm 2 mps 666 mmHg 77%
    04:00 +20°C° 0 mm 2 mps 666 mmHg 81%
    05:00 +20°C° 0 mm 2 mps 666 mmHg 80%
    06:00 +20°C° 0 mm 2 mps 666 mmHg 80%
    07:00 +21°C° 0 mm 2 mps 667 mmHg 78%
    08:00 +25°C° 0 mm 2 mps 667 mmHg 66%
    09:00 +28°C° 0 mm 2 mps 668 mmHg 54%
    10:00 +31°C° 0 mm 2 mps 668 mmHg 42%
    11:00 +33°C° 0 mm 1 mps 668 mmHg 37%
    12:00 +35°C° 0 mm 1 mps 668 mmHg 31%
    13:00 +37°C° 0 mm 1 mps 668 mmHg 25%
    14:00 +36°C° 0 mm 1 mps 667 mmHg 26%
    15:00 +35°C° 0 mm 1 mps 666 mmHg 27%
    16:00 +35°C° 0 mm 2 mps 665 mmHg 27%
    17:00 +32°C° 0 mm 1 mps 665 mmHg 31%
    18:00 +31°C° 0 mm 1 mps 665 mmHg 34%
    19:00 +29°C° 0 mm 1 mps 665 mmHg 37%
    20:00 +28°C° 0 mm 1 mps 665 mmHg 42%
    21:00 +27°C° 0 mm 2 mps 665 mmHg 47%
    22:00 +26°C° 0 mm 2 mps 666 mmHg 52%
    23:00 +25°C° 0 mm 2 mps 665 mmHg 60%

    Tomorrow, 25 September, Monday

    Time Temperature Precipitation Wind Pressure Humidity
    00:00 +24°C° 0 mm 3 mps 665 mmHg 67%
    01:00 +22°C° 0 mm 3 mps 665 mmHg 74%
    02:00 +21°C° 0 mm 3 mps 664 mmHg 78%
    03:00 +20°C° 0 mm 3 mps 664 mmHg 82%
    04:00 +20°C° 0 mm 3 mps 664 mmHg 86%
    05:00 +20°C° 0 mm 3 mps 664 mmHg 84%
    06:00 +20°C° 0 mm 3 mps 664 mmHg 82%
    07:00 +21°C° 0 mm 3 mps 665 mmHg 80%
    08:00 +24°C° 0 mm 3 mps 666 mmHg 68%
    09:00 +27°C° 0 mm 3 mps 666 mmHg 57%
    10:00 +30°C° 0 mm 3 mps 667 mmHg 45%
    11:00 +34°C° 0 mm 2 mps 667 mmHg 38%
    12:00 +36°C° 0 mm 2 mps 666 mmHg 31%
    13:00 +38°C° 0 mm 2 mps 666 mmHg 24%
    14:00 +37°C° 0 mm 2 mps 665 mmHg 26%
    15:00 +35°C° 0 mm 2 mps 665 mmHg 28%
    16:00 +34°C° 0 mm 2 mps 664 mmHg 30%
    17:00 +31°C° 0.1 mm 3 mps 664 mmHg 37%
    18:00 +29°C° 0.1 mm 3 mps 664 mmHg 44%
    19:00 +27°C° 0.1 mm 4 mps 664 mmHg 51%
    20:00 +26°C° 0.3 mm 3 mps 664 mmHg 56%
    21:00 +25°C° 0.3 mm 3 mps 665 mmHg 62%
    22:00 +24°C° 0.3 mm 2 mps 665 mmHg 67%
    23:00 +24°C° 0.1 mm 2 mps 665 mmHg 69%

    Day after tomorrow, 26 September, Tuesday

    Time Temperature Precipitation Wind Pressure Humidity
    00:00 +22°C° 0.1 mm 3 mps 664 mmHg 71%
    01:00 +22°C° 0.1 mm 3 mps 664 mmHg 73%
    02:00 +21°C° 0 mm 3 mps 664 mmHg 75%
    03:00 +20°C° 0 mm 3 mps 663 mmHg 78%
    04:00 +20°C° 0 mm 3 mps 663 mmHg 80%
    05:00 +20°C° 0 mm 3 mps 663 mmHg 79%
    06:00 +20°C° 0 mm 3 mps 664 mmHg 78%
    07:00 +20°C° 0 mm 3 mps 664 mmHg 77%
    08:00 +24°C° 0 mm 3 mps 665 mmHg 65%
    09:00 +27°C° 0 mm 3 mps 666 mmHg 54%
    10:00 +30°C° 0 mm 3 mps 666 mmHg 42%
    11:00 +33°C° 0 mm 3 mps 666 mmHg 36%
    12:00 +35°C° 0 mm 3 mps 665 mmHg 29%
    13:00 +37°C° 0 mm 2 mps 665 mmHg 23%
    14:00 +37°C° 0 mm 2 mps 664 mmHg 24%
    15:00 +36°C° 0 mm 2 mps 663 mmHg 25%
    16:00 +35°C° 0 mm 2 mps 663 mmHg 26%
    17:00 +33°C° 0 mm 3 mps 663 mmHg 31%
    18:00 +30°C° 0 mm 3 mps 663 mmHg 37%
    19:00 +28°C° 0 mm 4 mps 664 mmHg 42%
    20:00 +27°C° 0 mm 4 mps 664 mmHg 47%
    21:00 +26°C° 0 mm 3 mps 664 mmHg 51%
    22:00 +25°C° 0 mm 3 mps 664 mmHg 56%
    23:00 +23°C° 0 mm 4 mps 664 mmHg 62%

    27 September, Wednesday

    Time Temperature Precipitation Wind Pressure Humidity
    00:00 +22°C° 0 mm 4 mps 664 mmHg 69%
    01:00 +20°C° 0 mm 4 mps 663 mmHg 75%
    02:00 +20°C° 0 mm 4 mps 663 mmHg 78%
    03:00 +19°C° 0 mm 3 mps 663 mmHg 80%
    04:00 +19°C° 0 mm 3 mps 663 mmHg 83%
    05:00 +19°C° 0 mm 3 mps 664 mmHg 81%
    06:00 +19°C° 0 mm 3 mps 665 mmHg 78%
    07:00 +20°C° 0 mm 3 mps 666 mmHg 76%
    08:00 +22°C° 0 mm 3 mps 666 mmHg 64%
    09:00 +26°C° 0 mm 3 mps 667 mmHg 52%
    10:00 +29°C° 0 mm 3 mps 667 mmHg 40%
    11:00 +31°C° 0 mm 3 mps 667 mmHg 35%
    12:00 +35°C° 0 mm 3 mps 666 mmHg 30%
    13:00 +37°C° 0 mm 2 mps 665 mmHg 25%
    14:00 +36°C° 0 mm 3 mps 665 mmHg 26%
    15:00 +35°C° 0 mm 3 mps 664 mmHg 26%
    16:00 +34°C° 0 mm 3 mps 664 mmHg 27%
    17:00 +33°C° 0 mm 3 mps 664 mmHg 31%
    18:00 +30°C° 0 mm 3 mps 664 mmHg 35%
    19:00 +29°C° 0 mm 4 mps 664 mmHg 38%
    20:00 +27°C° 0 mm 4 mps 665 mmHg 42%
    21:00 +26°C° 0 mm 4 mps 665 mmHg 47%
    22:00 +25°C° 0 mm 4 mps 665 mmHg 51%
    23:00 +23°C° 0 mm 4 mps 665 mmHg 58%

    28 September, Thursday

    Time Temperature Precipitation Wind Pressure Humidity
    00:00 +22°C° 0 mm 3 mps 665 mmHg 66%
    01:00 +21°C° 0 mm 3 mps 664 mmHg 73%
    02:00 +20°C° 0.4 mm 3 mps 665 mmHg 77%
    03:00 +20°C° 0.4 mm 2 mps 665 mmHg 80%
    04:00 +19°C° 0.4 mm 2 mps 665 mmHg 84%
    05:00 +19°C° 0.3 mm 2 mps 665 mmHg 83%
    06:00 +19°C° 0.3 mm 2 mps 666 mmHg 82%
    07:00 +19°C° 0.3 mm 2 mps 667 mmHg 82%
    08:00 +23°C° 0.7 mm 2 mps 667 mmHg 70%
    09:00 +26°C° 0.7 mm 1 mps 668 mmHg 59%
    10:00 +29°C° 0.7 mm 1 mps 669 mmHg 48%
    11:00 +31°C° 0.1 mm 1 mps 668 mmHg 42%
    12:00 +32°C° 0.1 mm 2 mps 667 mmHg 36%
    13:00 +35°C° 0.1 mm 2 mps 667 mmHg 30%
    14:00 +35°C° 0 mm 2 mps 666 mmHg 30%
    15:00 +35°C° 0 mm 2 mps 666 mmHg 30%
    16:00 +34°C° 0 mm 3 mps 665 mmHg 29%
    17:00 +31°C° 0 mm 3 mps 665 mmHg 33%
    18:00 +30°C° 0 mm 3 mps 665 mmHg 37%
    19:00 +28°C° 0 mm 3 mps 666 mmHg 41%
    20:00 +27°C° 0 mm 3 mps 666 mmHg 44%
    21:00 +26°C° 0 mm 3 mps 666 mmHg 46%
    22:00 +25°C° 0 mm 3 mps 666 mmHg 48%
    23:00 +24°C° 0 mm 3 mps 666 mmHg 54%

    29 September, Friday

    Time Temperature Precipitation Wind Pressure Humidity
    00:00 +23°C° 0 mm 2 mps 665 mmHg 60%
    01:00 +21°C° 0 mm 2 mps 665 mmHg 66%
    02:00 +21°C° 0 mm 2 mps 665 mmHg 70%
    03:00 +20°C° 0 mm 2 mps 665 mmHg 74%
    04:00 +20°C° 0 mm 2 mps 664 mmHg 78%
    05:00 +21°C° 0.2 mm 1 mps 665 mmHg 78%
    06:00 +21°C° 0.2 mm 1 mps 665 mmHg 78%
    07:00 +21°C° 0.2 mm 1 mps 666 mmHg 78%
    08:00 +25°C° 0 mm 1 mps 667 mmHg 64%
    09:00 +29°C° 0 mm 1 mps 667 mmHg 50%
    10:00 +34°C° 0 mm 1 mps 668 mmHg 36%
    11:00 +35°C° 0 mm 1 mps 667 mmHg 32%
    12:00 +36°C° 0 mm 1 mps 667 mmHg 28%
    13:00 +39°C° 0 mm 1 mps 666 mmHg 24%
    14:00 +36°C° 0 mm 1 mps 665 mmHg 26%
    15:00 +34°C° 0 mm 1 mps 665 mmHg 28%
    16:00 +33°C° 0 mm 1 mps 664 mmHg 31%
    17:00 +31°C° 0.4 mm 1 mps 664 mmHg 36%
    18:00 +30°C° 0.4 mm 1 mps 665 mmHg 41%
    19:00 +28°C° 0.4 mm 2 mps 665 mmHg 46%
    20:00 +27°C° 0.2 mm 2 mps 665 mmHg 51%
    21:00 +26°C° 0.2 mm 2 mps 665 mmHg 56%
    22:00 +25°C° 0.2 mm 2 mps 665 mmHg 60%
    23:00 +24°C° 0 mm 2 mps 665 mmHg 64%
    Show more